Temp
18 19 19 19 20 20 20 20 20 20 20 20 20 20 21 22 22 23 25 25 25 25 25 24 24 23 22 22 22 22 19 19 23 24 25 27 25 26 26 25 24 24 23 24 23
18 18 19 19 20 20 20 20 20 20 20 20 20 21 21 22 23 25 26 26 26 25 25 25 24 24 23 23 23 22 17 21 24 25 25 26 26 26 26 23 24 23 24 23 22
18 18 19 19 20 20 20 20 20 20 20 20 20 21 21 23 24 26 26 26 26 26 25 25 25 24 23 23 22 21 20 22 25 27 26 26 26 27 25 22 24 25 24 22 22
18 18 19 19 20 20 20 20 20 20 20 20 20 21 22 23 23 26 27 26 26 25 25 25 25 24 23 22 24 23 24 25 26 27 26 26 27 26 25 24 26 25 24 22 18
19 19 19 19 20 20 21 21 20 20 20 20 21 21 22 23 26 26 27 27 26 26 26 26 25 25 23 24 24 23 25 26 27 26 26 26 26 24 22 25 25 24 21 20 19
19 19 19 19 20 20 21 21 21 20 20 21 21 21 22 23 26 26 26 27 26 26 27 27 27 26 24 24 23 26 25 27 27 27 27 26 23 25 22 24 23 22 21 19 19
19 19 19 19 20 21 21 21 21 21 21 21 21 22 23 26 26 26 27 26 27 27 27 27 26 26 26 25 26 26 25 24 25 26 25 26 23 20 20 20 20 20 19 19 19
19 19 19 19 20 21 21 21 21 21 21 21 22 22 25 26 26 26 26 27 27 27 27 26 26 26 26 26 25 23 22 21 24 24 25 26 22 19 20 22 20 19 19 19 18
19 19 19 20 20 21 22 22 22 22 21 21 22 22 26 27 27 27 27 27 27 27 27 27 26 26 26 22 21 20 22 23 23 25 24 23 22 19 19 21 21 17 17 18 19
19 19 20 20 21 21 22 22 22 22 22 22 21 22 26 27 27 27 27 27 26 26 27 27 26 21 19 20 21 22 22 22 23 24 22 21 21 19 19 18 19 19 19 19 19
19 20 20 21 21 22 23 23 22 22 22 24 25 24 26 26 27 27 27 27 26 25 24 24 21 21 23 22 23 23 22 22 23 24 20 20 21 20 19 20 20 18 19 21 21
19 20 20 21 22 23 23 23 23 23 22 25 25 25 26 26 26 27 27 26 25 23 24 21 22 22 23 23 24 25 24 24 23 24 20 19 20 18 18 18 19 19 19 20 19
20 21 21 21 22 23 24 23 23 22 21 24 25 26 26 27 26 28 27 26 25 23 23 22 23 24 24 24 24 24 23 23 23 24 20 19 19 18 19 19 20 20 19 19 18
20 21 21 22 22 23 23 23 24 24 18 22 24 26 26 27 27 28 28 28 25 23 22 22 23 23 24 25 25 24 24 23 22 22 20 20 18 18 18 17 18 17 18 19 18
20 20 21 22 22 23 23 24 24 24 21 26 25 27 27 27 28 28 29 27 24 24 23 23 24 22 23 24 25 23 24 24 23 21 20 20 18 18 18 20 17 15 16 17 17
20 21 22 23 23 23 24 24 25 19 23 25 26 26 26 26 27 28 28 28 28 24 23 23 25 23 24 24 25 24 24 20 18 17 18 19 18 17 17 19 18 16 15 15 15
21 22 23 23 23 23 24 25 18 20 24 25 27 26 25 25 26 26 26 25 23 23 22 23 24 25 25 24 23 22 19 18 18 18 17 17 17 16 18 19 18 16 15 14 15
22 22 23 23 23 23 24 19 21 22 23 26 26 25 26 25 25 25 24 23 24 22 20 22 22 25 26 25 23 22 19 17 18 16 17 18 17 17 18 18 17 16 16 14 15
22 23 23 23 23 23 24 17 19 21 25 25 25 23 23 25 25 24 23 22 23 23 22 21 22 24 25 25 23 22 20 18 15 15 15 16 17 17 16 14 13 13 15 14 15
22 22 22 23 23 23 18 17 19 22 24 25 24 24 24 24 24 24 23 22 22 20 22 21 21 23 23 23 20 21 18 18 14 16 15 16 15 15 17 14 13 12 13 15 15
21 22 22 22 23 23 16 16 20 25 25 24 24 25 24 25 24 23 23 21 20 21 19 18 19 21 22 20 19 18 18 14 14 14 16 15 15 14 16 15 14 13 14 15 15
20 18 22 22 21 14 16 19 24 24 25 23 23 24 25 24 24 23 22 19 19 20 20 17 16 17 19 20 18 19 19 17 16 17 14 14 13 17 15 16 16 14 15 16 16
17 18 21 21 17 15 17 20 23 23 23 25 22 23 22 22 21 21 20 20 20 20 19 18 16 16 17 17 18 19 18 17 15 13 14 15 14 16 16 17 16 15 15 16 17
17 14 20 21 20 18 17 18 21 24 24 24 23 22 22 20 19 21 20 20 19 18 18 17 14 16 17 17 17 18 18 17 16 14 15 14 16 16 15 16 15 16 16 16 17
16 14 14 14 17 16 16 18 20 21 24 24 22 22 22 20 19 20 19 19 18 16 16 15 15 15 16 17 18 18 18 19 17 17 17 18 16 16 15 14 16 18 17 16 16
15 13 15 15 16 15 16 19 19 20 21 22 20 20 20 20 20 19 19 18 18 15 15 13 15 15 16 18 17 17 19 19 20 20 19 18 17 16 16 17 17 17 17 16 16
13 13 12 15 15 15 16 18 19 19 22 22 21 20 20 21 20 18 17 15 15 16 15 14 13 13 15 15 15 17 16 17 19 19 18 18 18 16 16 16 18 18 17 18 17
Height
1529 1526 1524 1522 1521 1520 1519 1519 1519 1519 1519 1519 1520 1520 1521 1522 1522 1523 1523 1528 1528 1529 1530 1531 1532 1533 1533 1533 1534 1535 1542 1544 1529 1524 1518 1513 1513 1515 1517 1517 1520 1521 1523 1523 1524
1530 1527 1524 1523 1521 1521 1520 1519 1519 1519 1518 1518 1519 1519 1519 1520 1521 1521 1524 1526 1527 1528 1529 1530 1532 1533 1532 1531 1531 1533 1543 1530 1515 1515 1517 1516 1518 1515 1517 1519 1520 1520 1520 1521 1523
1530 1527 1525 1523 1522 1521 1520 1519 1519 1519 1518 1518 1518 1518 1519 1519 1522 1520 1523 1524 1525 1527 1528 1530 1531 1531 1531 1527 1528 1530 1533 1518 1516 1515 1515 1516 1514 1518 1516 1521 1515 1513 1517 1521 1522
1531 1528 1525 1523 1521 1520 1520 1519 1519 1519 1518 1518 1518 1518 1518 1519 1525 1520 1521 1523 1525 1526 1528 1528 1528 1529 1528 1527 1524 1529 1521 1519 1514 1512 1513 1512 1510 1511 1513 1516 1515 1517 1518 1519 1524
1531 1528 1526 1523 1521 1520 1519 1519 1519 1518 1518 1518 1517 1517 1518 1519 1518 1519 1519 1521 1522 1525 1527 1526 1525 1526 1525 1523 1523 1523 1518 1514 1511 1512 1511 1510 1509 1513 1515 1514 1513 1513 1516 1519 1520
1531 1528 1526 1523 1521 1520 1519 1518 1518 1518 1518 1518 1517 1517 1518 1519 1517 1517 1517 1519 1521 1524 1524 1524 1524 1524 1522 1520 1521 1515 1515 1511 1512 1510 1510 1511 1513 1511 1514 1511 1509 1511 1513 1518 1519
1531 1528 1526 1523 1521 1519 1518 1518 1518 1518 1517 1517 1516 1517 1517 1516 1516 1516 1517 1519 1521 1523 1523 1523 1525 1525 1520 1517 1516 1513 1516 1514 1511 1509 1509 1510 1516 1519 1517 1517 1512 1513 1516 1514 1518
1531 1528 1525 1523 1520 1518 1518 1517 1517 1517 1517 1517 1516 1516 1515 1515 1515 1516 1517 1518 1520 1521 1521 1522 1523 1522 1521 1516 1515 1518 1519 1532 1512 1510 1510 1508 1527 1521 1519 1517 1514 1517 1518 1521 1521
1531 1528 1525 1522 1520 1518 1517 1517 1517 1517 1517 1516 1516 1516 1514 1513 1514 1515 1516 1517 1519 1520 1521 1521 1522 1521 1520 1524 1532 1530 1540 1531 1522 1510 1509 1510 1519 1519 1518 1514 1514 1522 1522 1522 1522
1530 1527 1524 1521 1519 1517 1516 1517 1516 1516 1516 1516 1516 1518 1513 1512 1513 1514 1516 1517 1518 1520 1521 1520 1521 1525 1529 1534 1553 1539 1537 1531 1529 1512 1511 1517 1518 1517 1518 1517 1524 1522 1521 1519 1518
1529 1526 1522 1519 1517 1516 1516 1516 1518 1517 1514 1512 1512 1509 1510 1513 1513 1514 1516 1517 1518 1520 1521 1520 1528 1536 1527 1525 1524 1525 1530 1531 1519 1510 1519 1522 1520 1516 1516 1515 1516 1517 1517 1517 1516
1528 1524 1521 1518 1516 1515 1515 1515 1516 1517 1512 1507 1507 1508 1509 1512 1513 1512 1514 1517 1516 1522 1518 1527 1533 1522 1518 1518 1517 1516 1524 1522 1513 1510 1518 1526 1525 1519 1516 1516 1516 1516 1517 1518 1516
1527 1522 1519 1516 1514 1514 1513 1516 1516 1514 1513 1504 1502 1503 1506 1509 1509 1508 1512 1512 1514 1520 1519 1528 1522 1515 1518 1517 1518 1517 1523 1521 1523 1514 1520 1524 1530 1524 1518 1517 1515 1515 1516 1516 1515
1525 1520 1517 1515 1516 1513 1514 1514 1513 1512 1522 1506 1501 1500 1503 1506 1507 1504 1507 1511 1514 1517 1519 1521 1512 1515 1517 1517 1511 1522 1507 1512 1517 1524 1538 1522 1550 1528 1522 1522 1518 1515 1512 1512 1514
1523 1518 1515 1514 1513 1513 1515 1514 1513 1513 1542 1500 1499 1497 1498 1502 1502 1501 1503 1505 1510 1512 1517 1518 1512 1515 1519 1511 1505 1515 1506 1510 1513 1521 1526 1529 1542 1528 1520 1519 1519 1517 1512 1513 1515
1521 1515 1513 1512 1511 1513 1513 1513 1514 1529 1534 1503 1495 1498 1500 1500 1501 1501 1502 1504 1503 1508 1509 1506 1504 1507 1504 1501 1501 1500 1504 1512 1522 1530 1548 1530 1536 1533 1522 1515 1516 1515 1512 1514 1517
1517 1512 1509 1509 1511 1512 1512 1514 1532 1540 1507 1505 1498 1496 1500 1502 1500 1500 1501 1504 1513 1521 1521 1508 1505 1499 1498 1504 1501 1507 1521 1547 1548 1547 1550 1528 1536 1524 1507 1509 1510 1512 1513 1516 1517
1513 1508 1506 1507 1509 1511 1513 1518 1538 1520 1514 1498 1497 1498 1504 1502 1503 1502 1506 1513 1506 1510 1522 1523 1528 1502 1497 1500 1507 1506 1516 1542 1552 1559 1543 1526 1536 1518 1504 1505 1505 1509 1511 1515 1516
1511 1507 1506 1506 1509 1512 1514 1537 1531 1519 1508 1506 1502 1511 1512 1504 1504 1505 1508 1512 1507 1505 1518 1523 1519 1499 1497 1497 1503 1510 1522 1518 1537 1540 1549 1532 1518 1505 1505 1509 1511 1509 1510 1515 1517
1510 1508 1508 1508 1511 1513 1518 1529 1519 1509 1505 1504 1512 1508 1515 1508 1508 1506 1507 1506 1507 1505 1502 1511 1523 1504 1501 1499 1503 1505 1511 1529 1538 1548 1553 1533 1530 1523 1509 1512 1511 1510 1510 1514 1517
1511 1509 1510 1511 1513 1514 1528 1525 1513 1505 1506 1508 1506 1506 1506 1506 1506 1510 1509 1508 1508 1505 1503 1508 1515 1513 1503 1509 1513 1514 1518 1526 1531 1538 1542 1544 1530 1501 1500 1502 1504 1506 1508 1511 1514
1513 1513 1513 1513 1516 1520 1523 1516 1508 1501 1500 1499 1498 1500 1502 1505 1508 1510 1511 1512 1508 1507 1509 1511 1519 1525 1513 1502 1503 1506 1510 1515 1531 1533 1537 1539 1530 1492 1494 1497 1499 1503 1506 1509 1512
1516 1515 1514 1515 1524 1524 1517 1512 1508 1503 1498 1496 1501 1499 1501 1508 1515 1511 1511 1508 1507 1506 1508 1507 1520 1533 1522 1512 1505 1506 1506 1509 1513 1526 1533 1537 1524 1494 1495 1496 1499 1501 1504 1507 1510
1521 1520 1516 1516 1518 1518 1519 1513 1509 1501 1500 1497 1501 1499 1502 1511 1509 1513 1511 1506 1505 1504 1504 1505 1517 1519 1528 1516 1507 1509 1504 1503 1509 1527 1520 1520 1507 1498 1496 1496 1498 1501 1504 1506 1508
1525 1526 1526 1525 1518 1518 1518 1515 1512 1507 1500 1499 1503 1502 1504 1514 1513 1512 1508 1506 1505 1507 1508 1509 1516 1511 1505 1502 1500 1500 1498 1497 1507 1504 1509 1500 1503 1492 1489 1493 1495 1498 1502 1506 1507
1529 1529 1527 1524 1521 1519 1518 1515 1511 1507 1506 1503 1506 1506 1505 1510 1509 1511 1506 1508 1508 1510 1510 1512 1515 1511 1507 1500 1502 1500 1492 1489 1490 1489 1490 1491 1493 1484 1488 1493 1496 1497 1501 1503 1504
1532 1531 1530 1523 1522 1521 1519 1516 1511 1510 1504 1500 1502 1504 1506 1506 1505 1505 1506 1507 1509 1509 1512 1514 1517 1520 1517 1506 1504 1505 1499 1492 1487 1486 1486 1496 1489 1488 1490 1491 1494 1496 1499 1500 1501
Wind_Speed
18 16 14 11 8 5 4 3 3 3 3 2 1 0 1 3 6 10 16 7 12 7 4 1 2 3 7 8 10 4 2 4 4 3 4 3 4 14 10 11 10 11 7 7 14
17 17 15 12 9 5 4 3 3 3 3 2 2 1 1 2 6 13 12 11 9 9 7 2 1 3 6 5 7 5 2 6 6 2 3 6 3 12 5 9 7 11 12 8 19
18 17 15 13 10 5 3 3 3 3 3 2 2 1 1 3 5 11 9 11 11 10 7 3 5 7 6 7 9 8 6 5 10 14 15 11 17 12 7 4 14 20 17 14 24
17 16 15 13 11 6 3 3 3 3 3 3 2 1 2 6 6 5 8 11 11 12 6 4 4 3 5 4 8 1 10 5 10 9 7 5 10 10 15 3 9 16 13 20 26
17 16 15 13 12 7 4 3 3 3 3 3 2 0 3 5 4 2 6 12 13 11 7 6 8 3 4 3 1 6 5 8 11 16 18 17 11 5 3 5 6 7 15 23 26
18 16 15 13 12 7 4 3 3 3 3 3 2 1 3 3 2 4 2 15 10 7 5 7 5 10 10 6 5 6 9 16 4 14 12 5 5 2 2 7 10 12 19 21 23
20 17 15 14 12 9 3 3 3 3 3 2 1 1 5 8 1 5 6 9 8 6 6 8 6 10 13 5 7 4 1 4 8 3 4 3 4 5 1 7 16 16 20 21 20
22 18 15 14 12 9 4 3 3 3 3 2 1 2 5 7 8 2 1 7 8 6 6 9 9 10 4 9 8 5 5 5 6 4 4 1 1 5 6 8 14 19 20 18 19
24 20 16 14 12 9 4 3 3 4 4 3 2 2 4 10 10 4 4 5 6 7 9 14 11 3 3 4 6 6 3 4 7 2 2 6 0 1 8 11 14 11 13 15 16
25 21 17 15 12 8 3 3 3 5 4 3 3 1 8 12 10 7 6 9 11 9 8 1 2 3 3 5 1 5 3 4 6 5 5 3 2 2 9 10 4 5 8 9 6
27 23 18 15 12 6 2 2 3 3 8 8 3 6 6 3 10 12 11 7 15 13 1 4 5 3 4 5 5 3 3 6 7 4 5 3 2 6 6 5 8 7 6 4 4
29 24 19 16 11 5 4 3 0 3 8 15 18 19 17 16 7 13 12 9 6 6 3 5 2 8 8 5 5 3 6 9 7 5 5 1 3 6 8 5 6 6 4 4 7
30 25 20 15 9 2 6 1 6 9 4 7 9 15 13 9 12 20 7 9 5 5 5 5 7 9 5 5 2 2 3 5 8 3 5 5 5 4 4 6 14 11 9 9 8
30 25 19 13 4 0 5 7 11 5 4 5 4 6 10 8 5 16 15 10 2 10 5 5 5 8 6 7 6 3 7 7 6 2 4 4 4 4 3 5 5 7 1 11 12
30 25 18 10 5 1 1 7 6 2 3 1 4 3 9 12 1 1 12 12 10 7 6 12 5 7 6 13 3 10 3 3 2 3 3 1 3 5 2 3 1 7 8 8 12
29 25 17 8 6 3 2 4 2 5 3 5 6 3 4 3 2 2 3 4 9 6 5 9 4 7 10 9 6 6 1 4 3 4 1 4 5 5 5 5 2 2 11 15 13
30 22 14 6 5 5 1 3 5 3 5 9 2 4 4 3 3 5 2 4 0 2 4 4 4 4 4 3 3 5 6 3 3 2 6 1 1 8 4 4 7 10 13 14 12
30 16 8 5 10 6 3 5 2 2 6 5 3 4 3 4 3 2 2 3 1 2 2 1 6 2 1 3 6 3 7 5 6 4 5 1 5 6 3 3 8 18 15 13 13
24 8 4 6 12 8 6 3 6 5 3 6 4 6 5 2 1 1 3 2 2 1 5 3 4 3 3 0 3 2 3 1 6 4 2 4 5 7 7 8 9 15 17 14 17
20 5 6 11 10 5 5 5 4 4 6 1 4 5 2 3 1 3 2 2 1 4 1 4 1 2 3 3 5 4 4 3 3 3 4 3 4 6 5 9 8 10 18 17 16
12 3 4 10 6 3 3 6 5 10 3 3 4 3 3 3 1 2 3 2 3 2 6 3 3 5 1 1 4 2 2 5 4 4 4 2 6 6 9 9 11 14 22 22 20
7 3 5 10 3 2 2 4 6 10 21 9 6 5 2 2 0 3 2 4 11 3 2 3 4 4 8 2 5 3 4 4 4 3 2 3 7 3 7 8 19 21 24 20 18
13 4 7 7 2 3 6 5 7 5 6 1 6 5 4 5 4 3 1 4 5 1 5 3 1 3 9 6 1 3 4 3 5 3 6 4 6 2 4 2 17 23 23 22 19
6 3 4 2 3 2 4 5 5 10 3 7 3 3 5 4 5 2 2 3 2 2 3 4 4 8 7 7 3 4 6 6 5 3 4 6 6 5 7 6 13 18 22 24 21
7 3 4 3 4 5 2 2 4 5 5 8 5 4 4 3 2 2 3 3 3 1 3 2 5 5 5 7 5 5 6 7 8 6 5 5 7 7 11 8 19 20 23 25 24
6 6 6 5 10 5 1 2 4 5 5 4 6 2 4 4 5 5 3 2 3 2 2 4 3 3 4 4 4 6 6 10 10 9 6 5 9 5 9 13 14 23 24 25 24
13 4 4 4 5 3 2 3 5 8 8 6 10 4 5 1 1 3 6 9 4 3 2 3 3 4 5 4 7 3 5 5 2 2 4 3 2 2 4 10 18 18 26 25 21
Wind_Direction
15 15 14 16 20 30 30 37 42 41 40 26 3 265 176 218 222 219 216 203 205 200 297 234 212 205 217 229 228 174 47 285 253 277 314 159 142 172 172 163 170 203 232 248 195
11 12 12 12 15 24 29 26 28 32 30 17 8 342 177 198 220 219 197 208 204 226 248 222 306 205 227 223 186 175 158 235 262 53 297 357 318 179 164 165 213 204 229 220 179
7 9 8 9 9 11 19 13 12 12 10 11 15 6 175 161 201 216 208 212 216 230 232 281 296 245 228 230 181 176 207 232 261 261 265 275 280 220 171 232 213 214 206 182 177
5 4 4 4 6 3 354 353 358 1 2 2 21 40 157 149 167 166 208 210 209 221 239 286 273 209 233 209 199 187 263 221 273 286 255 247 283 187 183 290 264 252 210 176 173
4 0 0 359 359 357 342 339 346 347 358 1 9 129 172 203 182 63 202 204 213 229 255 270 278 247 282 242 324 214 231 232 261 297 284 275 247 108 87 234 275 206 172 172 182
2 358 356 356 355 350 332 313 327 338 347 6 349 245 190 246 212 339 152 200 218 232 244 256 274 318 271 251 155 236 202 244 313 298 280 281 53 57 177 197 157 174 173 179 191
360 355 353 352 351 343 318 295 304 322 335 343 328 253 227 201 256 17 183 200 223 248 255 285 297 326 320 287 334 308 268 294 255 259 302 107 37 356 74 152 147 161 164 192 195
358 355 349 348 346 339 312 290 298 311 318 322 310 236 240 217 234 285 176 189 215 220 248 286 321 314 250 309 11 25 41 16 297 352 333 267 127 317 223 177 159 160 174 189 195
356 353 346 343 342 337 310 286 295 305 312 295 217 227 243 225 242 251 261 206 230 248 278 291 316 295 346 42 15 12 301 333 309 148 183 28 129 268 211 177 178 153 182 213 231
354 350 344 339 338 335 306 278 291 285 281 283 216 245 233 221 228 256 239 233 242 277 297 67 134 58 42 59 294 304 335 290 262 320 50 71 254 212 212 230 110 181 225 257 268
350 347 343 337 333 330 275 260 302 282 253 231 255 238 101 316 251 247 270 305 258 283 217 48 70 161 212 200 217 215 207 256 260 316 77 11 349 314 344 333 38 89 39 353 279
347 344 340 333 328 301 220 218 299 6 305 283 269 255 263 271 289 253 264 253 187 220 122 29 183 221 215 229 232 210 297 292 289 61 84 234 307 304 325 326 343 342 347 289 276
346 341 339 333 327 247 230 317 323 308 282 286 237 238 239 232 240 262 274 214 179 216 219 173 223 219 199 272 337 237 219 261 236 6 37 112 328 325 330 302 287 288 257 245 234
345 339 337 334 324 299 119 356 343 326 53 277 228 232 208 201 267 249 248 223 209 209 157 223 252 215 223 262 171 258 216 241 260 172 253 168 259 278 241 305 309 9 100 220 201
344 333 331 320 272 236 345 356 336 53 55 195 194 183 183 180 165 253 222 214 199 198 121 241 206 209 217 228 187 243 30 258 284 190 118 187 108 255 276 149 115 67 74 170 184
343 328 323 309 247 207 343 21 106 38 357 323 159 154 139 205 288 252 159 206 233 201 224 237 224 168 223 253 203 226 132 64 72 90 5 234 148 265 194 164 169 114 108 139 163
341 327 315 283 175 189 62 73 41 122 321 324 255 132 121 244 198 188 263 339 258 134 267 325 259 256 176 233 39 68 53 342 328 338 227 286 30 235 205 155 190 170 134 149 152
341 330 313 231 187 169 124 53 155 252 264 314 39 72 79 14 15 85 81 353 247 110 106 175 333 352 267 190 202 174 159 162 227 209 240 66 240 255 178 118 150 153 141 149 152
343 356 24 169 159 159 143 87 213 215 291 318 358 60 345 316 79 116 150 212 284 267 154 144 270 308 78 299 90 238 242 187 100 358 38 237 292 313 87 93 121 130 137 148 147
344 28 70 138 144 145 81 226 232 230 328 5 152 174 178 318 99 32 351 129 122 347 239 193 229 8 328 40 66 151 151 73 15 171 253 291 280 237 179 170 160 155 152 160 156
341 53 109 151 154 120 152 236 267 270 351 345 270 244 151 160 165 232 232 80 2 335 44 134 129 270 26 116 205 7 325 56 128 144 194 276 259 213 196 172 170 176 174 174 172
357 53 143 150 50 47 161 224 305 283 307 243 198 181 125 134 12 329 356 346 354 313 23 32 132 224 229 183 157 178 204 160 134 256 231 178 270 265 182 182 177 181 183 183 178
344 346 169 199 85 342 302 283 251 317 295 66 37 70 36 33 88 73 234 222 335 348 179 179 284 340 334 355 41 202 182 160 116 132 200 165 266 348 159 161 184 178 188 188 187
357 12 40 202 110 114 342 290 330 301 297 60 129 94 93 46 10 142 231 259 249 235 201 133 176 190 223 217 175 238 214 189 157 149 187 220 270 267 202 192 181 188 196 194 194
19 28 7 330 322 352 244 285 297 343 6 47 29 25 119 56 17 281 224 274 207 79 26 123 232 198 253 252 238 237 242 224 204 217 184 248 218 242 205 185 190 193 203 203 207
27 3 345 282 299 320 5 337 311 329 3 328 123 148 101 132 194 239 238 191 291 43 11 8 293 343 270 191 291 266 257 248 242 229 247 277 266 214 153 170 166 194 195 201 209
4 337 311 293 334 357 319 294 288 316 9 56 147 101 55 3 176 104 101 94 93 107 40 23 1 8 272 326 297 223 348 18 345 348 195 182 257 96 120 169 186 190 195 204 203